Weather History for Glenwood, MN

Change the Weather History Date:

Friday, August 29, 2014

  Actual Average Record
Temperature  
Mean Temperature 68 °F -  
Max Temperature 73 °F 79 °F 96 °F (1961)
Min Temperature 64 °F 56 °F 41 °F (1988)
Cooling Degree Days 4    
Growing Degree Days 18 (Base 50)    
Moisture  
Dew Point 65 °F    
Average Humidity 93    
Maximum Humidity 100    
Minimum Humidity 78    
Precipitation  
Precipitation 0.41 in - - ()
Sea Level Pressure  
Sea Level Pressure 29.80 in    
Wind  
Wind Speed 5 mph (North)    
Max Wind Speed 12 mph    
Max Gust Speed 16 mph    
Visibility 7 miles    
Events Rain , Thunderstorm    
Averages and records for this station are not official NWS values.
T = Trace of Precipitation, MM = Missing Value Source: NWS Daily Summary

Daily Weather History Graph

Daily Weather History Graph

Search for Another Location

Airport:

Trip Planner

Search our weather history database for the weather conditions in past years. The results will help you decide how hot, cold, wet, or windy it might be!

Date:

Astronomy

Aug. 29, 2014 Rise Set
Actual Time 6:38 AM CDT 8:04 PM CDT
Civil Twilight 6:07 AM CDT 8:35 PM CDT
Nautical Twilight 5:30 AM CDT 9:12 PM CDT
Astronomical Twilight 4:50 AM CDT 9:52 PM CDT
Moon 10:42 AM CDT (8/29) 9:48 PM CDT (8/29)
Length of Visible Light 14h 27m
Length of Day
13h 25m
Waxing Crescent, 15% of the Moon is Illuminated
Aug 29
Waxing Crescent
Sep 2
First Quarter
Sep 8
Full
Sep 15
Last Quarter
Sep 24
New

Hourly Weather History & Observations

Time (CDT) Temp. Dew Point Humidity Pressure Visibility Wind Dir Wind Speed Gust Speed Precip Events Conditions
12:13 AM 64.4 °F 64.4 °F 100% 29.88 in 1.5 mi ESE 9.2 mph - N/A   Overcast
12:33 AM 64.4 °F 62.6 °F 94% 29.87 in 5.0 mi SE 11.5 mph 16.1 mph 0.01 in   Overcast
12:53 AM 64.4 °F 62.6 °F 94% 29.87 in 7.0 mi ESE 6.9 mph - 0.01 in   Overcast
1:13 AM 64.4 °F 62.6 °F 94% 29.86 in 7.0 mi SE 6.9 mph - N/A   Overcast
1:33 AM 64.4 °F 62.6 °F 94% 29.85 in 7.0 mi ESE 9.2 mph - N/A   Overcast
1:53 AM 64.4 °F 62.6 °F 94% 29.84 in 7.0 mi ESE 8.1 mph - N/A   Overcast
2:13 AM 64.4 °F 62.6 °F 94% 29.84 in 5.0 mi ESE 5.8 mph - N/A   Overcast
2:33 AM 64.4 °F 62.6 °F 94% 29.84 in 5.0 mi SE 8.1 mph - N/A   Overcast
2:53 AM 64.4 °F 62.6 °F 94% 29.82 in 1.8 mi ESE 6.9 mph - N/A   Overcast
3:13 AM 64.4 °F 62.6 °F 94% 29.82 in 2.0 mi ESE 4.6 mph - N/A   Drizzle
3:32 AM 64.4 °F 62.6 °F 94% 29.81 in 2.0 mi Calm Calm - N/A   Overcast
3:53 AM 64.4 °F 62.6 °F 94% 29.81 in 1.5 mi ESE 5.8 mph - N/A Thunderstorm Overcast
4:13 AM 64.4 °F 64.4 °F 100% 29.80 in 1.5 mi Calm Calm - N/A   Overcast
4:33 AM 64.4 °F 64.4 °F 100% 29.81 in 1.2 mi ESE 3.5 mph - N/A Thunderstorm Overcast
4:53 AM 64.4 °F 64.4 °F 100% 29.80 in 1.0 mi Calm Calm - N/A Thunderstorm Overcast
5:13 AM 64.4 °F 64.4 °F 100% 29.79 in 0.8 mi East 4.6 mph - N/A Rain , Thunderstorm Light Thunderstorms and Rain
5:33 AM 64.4 °F 64.4 °F 100% 29.79 in 0.8 mi ENE 3.5 mph - 0.06 in Rain , Thunderstorm Heavy Thunderstorms and Rain
5:53 AM 64.4 °F 64.4 °F 100% 29.79 in 7.0 mi Calm Calm - 0.18 in Rain Light Rain
6:12 AM 64.4 °F 64.4 °F 100% 29.80 in 4.0 mi Calm Calm - N/A Thunderstorm Overcast
6:33 AM 64.4 °F 64.4 °F 100% 29.79 in 3.0 mi ENE 4.6 mph - N/A   Overcast
6:53 AM 64.4 °F 64.4 °F 100% 29.79 in 1.8 mi North 4.6 mph - N/A Thunderstorm Overcast
7:13 AM 64.4 °F 64.4 °F 100% 29.78 in 1.2 mi NNE 4.6 mph - N/A Thunderstorm Overcast
7:33 AM 64.4 °F 64.4 °F 100% 29.80 in 0.8 mi NE 3.5 mph - N/A Thunderstorm Overcast
7:53 AM 64.4 °F 64.4 °F 100% 29.80 in 0.5 mi East 5.8 mph - N/A Rain , Thunderstorm Light Thunderstorms and Rain
8:13 AM 64.4 °F 64.4 °F 100% 29.79 in 0.2 mi East 3.5 mph - 0.01 in Rain , Thunderstorm Light Thunderstorms and Rain
8:33 AM 64.4 °F 64.4 °F 100% 29.79 in 0.5 mi Calm Calm - 0.03 in Rain , Thunderstorm Thunderstorms and Rain
8:53 AM 64.4 °F 64.4 °F 100% 29.79 in 0.5 mi Calm Calm - 0.04 in Rain , Thunderstorm Light Thunderstorms and Rain
9:13 AM 64.4 °F 64.4 °F 100% 29.80 in 1.2 mi NNW 3.5 mph - N/A   Light Drizzle
9:33 AM 64.4 °F 64.4 °F 100% 29.79 in 2.0 mi North 3.5 mph - 0.02 in Rain Light Rain
9:53 AM 66.2 °F 64.4 °F 94% 29.79 in 7.0 mi North 3.5 mph - 0.02 in Rain Rain
10:13 AM 66.2 °F 66.2 °F 100% 29.80 in 7.0 mi Calm Calm - 0.06 in Rain Rain
10:33 AM 66.2 °F 64.4 °F 94% 29.80 in 7.0 mi Calm Calm - 0.07 in Rain Light Rain
10:53 AM 66.2 °F 66.2 °F 100% 29.80 in 4.0 mi Calm Calm - 0.15 in Rain Light Rain
11:13 AM 66.2 °F 66.2 °F 100% 29.80 in 10.0 mi Calm Calm - N/A Thunderstorm Unknown
11:33 AM 66.2 °F 66.2 °F 100% 29.80 in 10.0 mi Calm Calm - N/A   Light Drizzle
11:53 AM 66.2 °F 66.2 °F 100% 29.80 in 10.0 mi Calm Calm - N/A   Overcast
12:13 PM 68.0 °F 66.2 °F 94% 29.80 in 10.0 mi Calm Calm - N/A   Mostly Cloudy
12:33 PM 69.8 °F 66.2 °F 88% 29.79 in 10.0 mi NW 4.6 mph - N/A   Mostly Cloudy
12:53 PM 69.8 °F 66.2 °F 88% 29.79 in 10.0 mi NW 5.8 mph - N/A   Overcast
1:13 PM 69.8 °F 66.2 °F 88% 29.79 in 10.0 mi Calm Calm - N/A   Mostly Cloudy
1:32 PM 71.6 °F 66.2 °F 83% 29.79 in 10.0 mi Calm Calm - N/A   Scattered Clouds
1:53 PM 71.6 °F 66.2 °F 83% 29.79 in 10.0 mi WNW 3.5 mph - N/A   Scattered Clouds
2:13 PM 71.6 °F 66.2 °F 83% 29.79 in 10.0 mi West 4.6 mph - N/A   Scattered Clouds
2:33 PM 73.4 °F 66.2 °F 78% 29.79 in 10.0 mi WNW 3.5 mph - N/A   Scattered Clouds
2:53 PM 71.6 °F 66.2 °F 83% 29.78 in 10.0 mi NW 6.9 mph - N/A   Scattered Clouds
3:13 PM 71.6 °F 66.2 °F 83% 29.78 in 10.0 mi West 5.8 mph - N/A   Clear
3:33 PM 71.6 °F 66.2 °F 83% 29.78 in 10.0 mi NW 5.8 mph - N/A   Clear
3:53 PM 71.6 °F 66.2 °F 83% 29.78 in 10.0 mi NNW 5.8 mph - N/A   Clear
4:13 PM 71.6 °F 66.2 °F 83% 29.78 in 10.0 mi WNW 4.6 mph - N/A   Clear
4:32 PM 71.6 °F 66.2 °F 83% 29.78 in 10.0 mi Calm Calm - N/A   Clear
4:53 PM 73.4 °F 66.2 °F 78% 29.78 in 10.0 mi WNW 3.5 mph - N/A   Clear
5:13 PM 73.4 °F 66.2 °F 78% 29.78 in 10.0 mi West 5.8 mph - N/A   Clear
5:33 PM 73.4 °F 66.2 °F 78% 29.77 in 10.0 mi WNW 6.9 mph - N/A   Scattered Clouds
5:53 PM 73.4 °F 66.2 °F 78% 29.78 in 10.0 mi WNW 8.1 mph - N/A   Clear
6:13 PM 71.6 °F 66.2 °F 83% 29.78 in 10.0 mi NW 9.2 mph - 0.01 in   Scattered Clouds
6:33 PM 71.6 °F 66.2 °F 83% 29.78 in 10.0 mi NW 8.1 mph - 0.01 in   Scattered Clouds
6:53 PM 71.6 °F 66.2 °F 83% 29.78 in 10.0 mi NW 8.1 mph - 0.01 in   Scattered Clouds
7:13 PM 69.8 °F 66.2 °F 88% 29.78 in 10.0 mi NW 6.9 mph - N/A   Clear
7:33 PM 69.8 °F 66.2 °F 88% 29.79 in 10.0 mi NW 3.5 mph - N/A   Clear
7:52 PM 68.0 °F 66.2 °F 94% 29.79 in 10.0 mi NW 4.6 mph - N/A   Clear
8:13 PM 68.0 °F 64.4 °F 88% 29.80 in 10.0 mi NNW 6.9 mph - N/A   Clear
8:32 PM 66.2 °F 64.4 °F 94% 29.80 in 10.0 mi WNW 5.8 mph - N/A   Clear
8:53 PM 66.2 °F 64.4 °F 94% 29.81 in 10.0 mi Calm Calm - N/A   Scattered Clouds
9:13 PM 66.2 °F 64.4 °F 94% 29.81 in 10.0 mi Calm Calm - N/A   Mostly Cloudy
9:33 PM 66.2 °F 64.4 °F 94% 29.81 in 10.0 mi Calm Calm - N/A   Mostly Cloudy
9:53 PM 66.2 °F 64.4 °F 94% 29.81 in 10.0 mi NE 3.5 mph - N/A   Mostly Cloudy
10:13 PM 66.2 °F 64.4 °F 94% 29.81 in 10.0 mi Calm Calm - N/A   Scattered Clouds
10:33 PM 64.4 °F 64.4 °F 100% 29.82 in 10.0 mi Calm Calm - N/A   Clear
10:53 PM 64.4 °F 62.6 °F 94% 29.83 in 7.0 mi Calm Calm - N/A   Clear
11:12 PM 64.4 °F 62.6 °F 94% 29.83 in 7.0 mi Calm Calm - N/A   Clear
11:33 PM 64.4 °F 62.6 °F 94% 29.83 in 7.0 mi Calm Calm - N/A   Clear
11:53 PM 64.4 °F 62.6 °F 94% 29.83 in 10.0 mi NW 4.6 mph - N/A   Scattered Clouds